SCP
0 0 0 0 0 0 0 0 0 0 0 0 0 0 0 0 0 0 0 0 0 0 0 0 0 0 0 0 0 0 0 0 0 0 0 0 0 0 0 0 0 0 0
0 0 0 0 0 0 0 0 0 0 0 0 0 0 0 0 0 0 0 0 0 0 0 0 0 0 0 0 0 0 0 0 0 0 0 0 0 0 0 0 0 0 0
0 0 0 0 0 0 0 0 0 0 0 0 0 0 0 0 0 0 0 0 0 0 0 0 0 0 0 0 0 0 0 0 0 0 0 0 0 0 0 0 0 0 0
0 0 0 0 0 0 0 0 0 0 0 0 0 0 0 0 0 0 0 0 0 0 0 0 0 0 0 0 0 0 0 0 0 0 0 0 0 0 0 0 0 0 0
0 0 0 0 0 0 0 0 0 0 0 0 0 0 0 0 0 0 0 0 0 0 0 0 0 0 0 0 0 0 0 0 0 0 0 0 0 0 0 0 0 0 0
0 0 0 0 0 0 0 0 0 0 0 0 0 0 0 0 0 0 0 0 0 0 0 0 0 0 0 0 0 0 0 0 0 0 0 0 0 0 0 0 0 0 0
0 0 0 0 0 0 0 0 0 0 0 0 0 0 0 0 0 0 0 0 0 0 0 0 0 0 0 0 0 0 0 0 0 0 0 0 0 0 0 0 0 0 0
0 0 0 0 0 0 0 0 0 0 0 0 0 0 0 0 0 0 0 0 0 0 0 0 0 0 0 0 0 0 0 0 0 0 0 0 0 0 0 0 0 0 0
0 0 0 0 0 0 0 0 0 0 0 0 0 0 0 0 0 0 0 0 0 0 0 0 0 0 0 0 0 0 0 0 0 0 0 0 0 0 0 0 0 0 0
0 0 0 0 0 0 0 0 0 0 0 0 0 0 0 0 0 0 0 0 0 0 0 0 0 0 0 0 0 0 0 0 0 0 0 0 0 0 0 0 0 0 0
0 0 0 0 0 0 0 0 0 0 0 0 0 0 0 0 0 0 0 0 0 0 0 0 0 0 0 0 0 0 0 0 0 0 0 0 0 0 0 0 0 0 0
0 0 0 0 0 0 0 0 0 0 0 0 0 0 0 0 0 0 0 0 0 0 0 0 0 0 0 0 0 0 0 0 0 0 0 0 0 0 0 0 0 0 0
0 0 0 0 0 0 0 0 0 0 0 0 0 0 0 0 0 0 0 0 0 0 0 0 0 0 0 0 0 0 0 0 0 0 0 0 0 0 0 0 0 0 0
0 0 0 0 0 0 0 0 0 0 0 0 0 0 0 0 0 0 0 0 0 0 0 0 0 0 0 0 0 0 0 0 0 0 0 0 0 0 0 0 0 0 0
0 0 0 0 0 0 0 0 0 0 0 0 0 0 0 0 0 0 0 0 0 0 0 0 0 0 0 0 0 0 0 0 0 0 0 0 0 0 0 0 0 0 0
0 0 0 0 0 0 0 0 0 0 0 0 0 0 0 0 0 0 0 0 0 0 0 0 0 0 0 0 0 0 0 0 0 0 0 0 0 0 0 0 0 0 0
0 0 0 0 0 0 0 0 0 0 0 0 0 0 0 0 0 0 0 0 0 0 0 0 0 0 0 0 0 0 0 0 0 0 0 0 0 0 0 0 0 0 0
0 0 0 0 0 0 0 0 0 0 0 0 0 0 0 0 0 0 0 0 0 0 0 0 0 0 0 0 0 0 0 0 0 0 0 0 0 0 0 0 0 0 0
0 0 0 0 0 0 0 0 0 0 0 0 0 0 0 0 0 0 0 0 0 0 0 0 0 0 0 0 0 0 0 0 0 0 0 0 0 0 0 0 0 0 0
0 0 0 0 0 0 0 0 0 0 0 0 0 0 0 0 0 0 0 0 0 0 0 0 0 0 0 0 0 0 0 0 0 0 0 0 0 0 0 0 0 0 0
0 0 0 0 0 0 0 0 0 0 0 0 0 0 0 0 0 0 0 0 0 0 0 0 0 0 0 0 0 0 0 0 0 0 0 0 0 0 0 0 0 0 0
0 0 0 0 0 0 0 0 0 0 0 0 0 0 0 0 0 0 0 0 0 0 0 0 0 0 0 0 0 0 0 0 0 0 0 0 0 0 0 0 0 0 0
0 0 0 0 0 0 0 0 0 0 0 0 0 0 0 0 0 0 0 0 0 0 0 0 0 0 0 0 0 0 0 0 0 0 0 0 0 0 0 0 0 0 0
0 0 0 0 0 0 0 0 0 0 0 0 0 0 0 0 0 0 0 0 0 0 0 0 0 0 0 0 0 0 0 0 0 0 0 0 0 0 0 0 0 0 0
0 0 0 0 0 0 0 0 0 0 0 0 0 0 0 0 0 0 0 0 0 0 0 0 0 0 0 0 0 0 0 0 0 0 0 0 0 0 0 0 0 0 0
0 0 0 0 0 0 0 0 0 0 0 0 0 0 0 0 0 0 0 0 0 0 0 0 0 0 0 0 0 0 0 0 0 0 0 0 0 0 0 0 0 0 0
Wind_Speed
2 1 1 1 2 1 2 2 2 2 3 3 3 4 4 4 5 5 2 2 3 5 6 7 6 6 7 7 7 8 9 9 10 10 11 11 11 11 12 12 12 12 12
2 2 2 1 2 1 1 2 2 3 3 3 3 3 4 4 4 4 5 2 4 3 4 5 5 6 6 6 7 7 7 7 9 10 10 11 12 12 12 12 11 12 12
2 2 2 2 1 2 2 3 3 3 3 3 3 3 4 4 4 4 5 4 3 4 4 3 4 5 6 6 6 6 6 7 7 8 9 10 11 11 12 12 12 12 12
3 3 2 1 1 2 2 2 2 3 3 3 3 3 3 3 4 4 4 4 4 3 3 3 3 4 5 5 6 6 6 6 6 6 8 8 9 9 10 11 11 11 12
4 3 2 1 2 2 2 2 1 3 3 3 3 3 3 3 3 4 4 5 4 4 4 2 4 5 5 5 6 6 6 6 6 6 7 8 7 8 8 9 9 10 11
4 3 2 2 3 2 2 2 2 3 3 3 4 3 3 3 3 3 4 4 4 5 5 4 4 4 5 5 6 7 7 7 6 7 7 8 7 7 8 8 9 9 10
3 3 2 2 3 2 2 3 3 3 2 2 4 4 4 4 3 3 3 4 4 4 4 5 4 4 3 5 6 6 7 7 7 7 8 8 8 8 9 9 9 10 10
4 4 3 3 3 2 3 3 3 3 2 2 4 4 4 3 3 3 3 3 4 4 4 5 4 4 5 3 2 5 6 7 7 7 8 7 8 8 9 9 10 10 11
4 3 3 3 3 3 2 2 3 4 3 3 3 4 4 4 4 2 3 3 3 4 4 4 5 5 5 4 4 4 4 5 7 7 7 7 8 8 9 10 10 11 11
3 3 3 3 2 2 2 3 2 3 4 4 2 3 5 5 5 4 3 3 4 4 5 5 5 5 5 5 3 4 4 5 6 7 8 8 8 8 9 10 10 11 11
3 3 2 2 2 2 2 2 3 4 3 4 4 3 4 4 6 6 6 5 5 4 4 5 4 5 5 5 4 3 2 5 7 8 8 9 8 8 9 10 10 11 11
3 3 2 2 2 2 2 3 3 4 3 4 4 4 4 4 4 5 6 7 6 5 5 4 5 5 4 5 5 2 3 5 6 7 8 8 9 9 9 10 10 10 11
2 3 2 2 2 2 2 2 3 4 4 4 4 4 4 5 5 5 6 7 7 6 5 5 4 4 4 4 3 3 6 6 7 7 8 8 9 9 10 10 10 10 10
2 2 2 2 2 2 2 2 3 3 3 4 5 5 5 5 5 5 5 6 7 7 5 5 4 4 4 4 3 5 6 7 7 7 8 8 8 8 9 10 9 9 9
1 2 2 2 2 2 2 3 3 3 3 4 5 5 5 5 5 5 5 6 6 7 7 6 5 4 4 4 3 5 6 4 5 7 8 8 9 9 9 8 8 8 9
1 1 1 1 2 2 2 3 3 3 4 4 4 5 6 5 5 5 5 6 6 7 7 6 5 5 5 5 4 6 6 6 9 9 9 8 8 9 9 9 9 9 9
1 2 1 2 2 2 2 3 4 4 4 4 5 5 6 6 6 5 5 6 6 6 8 8 6 6 6 6 5 6 6 6 5 8 9 9 8 9 9 9 9 9 9
1 2 2 2 2 2 3 3 4 4 4 5 5 5 6 5 6 6 5 6 6 6 7 9 7 6 7 6 6 6 6 6 6 6 8 9 9 9 9 9 9 8 9
1 2 2 2 2 3 3 4 4 4 5 5 5 6 6 6 7 6 7 6 6 6 6 7 7 6 6 5 6 6 6 5 7 5 8 10 11 10 10 9 9 9 9
1 2 2 2 3 3 3 4 4 5 5 6 5 6 6 6 6 7 6 6 6 7 7 7 7 6 5 5 5 5 5 5 5 5 4 6 8 11 11 10 10 10 10
1 2 2 3 3 3 3 4 5 5 5 6 6 6 6 5 6 6 6 7 7 6 6 6 6 6 6 4 5 5 6 5 5 4 4 5 5 6 7 10 12 11 10
1 2 2 3 3 3 3 4 6 6 6 6 6 6 6 4 5 7 8 8 9 8 8 7 6 7 7 6 5 5 6 6 5 3 4 5 5 5 5 5 6 9 10
1 2 3 3 3 3 2 3 5 6 6 5 6 6 6 5 5 6 6 8 9 10 10 9 9 8 8 6 6 7 6 7 6 5 5 6 5 5 5 4 6 8 9
2 2 3 3 3 2 2 3 6 6 6 6 6 6 6 6 5 6 8 7 7 6 7 8 8 9 8 7 6 7 8 8 8 6 6 7 6 5 5 4 7 9 10
2 2 2 3 4 3 2 4 5 5 4 5 6 5 5 5 4 5 7 7 8 7 5 6 7 8 9 9 8 7 7 7 7 6 5 6 6 5 5 5 6 11 11
3 3 3 3 4 4 2 3 5 5 5 5 5 4 2 3 4 5 7 7 8 8 8 7 6 8 9 8 9 9 8 7 7 6 4 4 6 6 5 4 4 5 7
Wind_Direction
187 184 199 228 243 236 227 255 271 284 282 279 277 282 285 285 283 285 274 166 249 274 276 274 267 261 259 260 258 254 247 245 243 236 228 229 232 231 231 230 228 226 225
190 209 211 228 246 251 273 273 278 275 280 288 281 283 284 289 287 283 284 235 197 236 274 283 276 270 272 271 265 254 252 250 248 243 232 227 229 231 231 229 229 230 226
193 211 223 221 233 245 239 259 272 272 274 273 281 287 280 281 287 281 281 286 252 199 221 263 281 277 275 276 272 265 262 260 259 250 243 234 230 230 228 228 228 229 225
198 215 224 223 231 248 248 255 268 272 273 279 287 290 285 269 267 269 272 275 286 290 231 204 254 276 279 276 269 264 265 266 263 261 252 243 234 229 227 225 224 226 225
195 208 213 225 242 247 258 270 279 280 275 282 277 266 274 271 269 264 273 278 281 278 281 209 223 251 265 272 268 262 259 263 262 258 253 247 238 227 225 223 221 224 222
196 207 203 208 245 246 249 264 269 275 284 287 286 285 273 274 273 278 276 276 275 273 275 282 263 231 229 255 266 263 259 257 259 257 251 249 240 227 226 227 225 224 223
194 210 226 207 240 239 262 265 269 262 275 286 280 274 255 242 256 277 277 287 284 285 283 276 273 281 254 229 242 254 258 257 258 261 256 251 247 236 231 230 229 230 228
207 208 222 227 222 229 234 258 270 279 275 278 290 288 276 238 221 258 273 271 289 291 283 277 280 267 272 270 205 227 249 256 260 261 260 255 254 247 238 231 229 230 232
204 219 215 230 227 233 224 249 269 280 283 275 291 294 294 302 312 244 263 274 284 291 287 283 271 272 267 267 254 219 236 256 261 262 260 257 254 252 247 239 236 236 236
203 210 219 220 231 238 225 244 259 266 272 281 275 277 291 311 298 295 268 269 273 275 284 287 286 274 268 265 258 251 238 252 261 265 264 260 257 255 250 245 242 240 238
193 196 204 210 222 239 243 256 256 268 269 280 286 283 279 270 268 281 293 296 285 274 275 278 284 280 277 268 258 243 214 242 254 260 262 261 260 256 255 250 247 244 242
176 172 193 224 238 258 258 259 262 261 276 282 285 285 283 288 283 279 281 286 293 294 288 284 276 271 268 265 260 224 231 248 252 255 258 255 254 257 258 254 249 246 243
177 170 198 230 256 264 266 277 270 278 273 275 275 279 283 286 288 286 283 286 290 289 282 267 267 273 274 271 264 204 230 234 242 248 252 254 254 253 255 254 250 248 245
179 181 215 228 244 252 267 273 270 269 268 270 274 277 276 277 282 281 282 288 288 288 286 286 281 273 280 279 274 234 245 221 227 241 248 251 253 253 254 252 248 247 243
181 191 233 243 247 253 263 265 272 276 273 268 272 268 272 278 274 276 273 273 281 288 292 293 291 285 277 275 264 261 264 230 229 242 246 249 250 248 253 256 250 245 240
195 218 247 268 269 269 270 270 270 279 280 277 275 278 279 279 280 275 273 274 272 274 284 289 291 293 293 284 263 267 264 233 230 231 236 240 244 246 247 253 251 243 237
208 217 226 248 265 275 273 265 274 274 276 279 277 278 279 281 282 283 281 276 273 272 277 287 292 293 286 279 278 274 267 258 243 213 221 229 236 241 244 248 246 243 238
225 232 239 245 254 265 270 268 270 276 277 280 280 281 286 287 285 281 280 278 278 274 273 282 287 286 286 281 275 272 272 270 269 219 214 224 230 235 240 243 242 241 238
241 254 252 252 265 274 275 276 277 281 280 278 279 282 284 286 286 290 286 285 283 278 273 274 280 284 281 281 279 271 270 270 270 234 212 219 226 231 237 237 238 239 239
237 263 272 279 284 284 285 287 289 288 287 284 283 282 282 284 287 291 287 286 286 284 279 275 279 282 282 284 282 278 275 269 270 270 258 244 227 222 228 230 232 233 235
247 266 274 281 284 284 304 311 299 291 291 289 290 289 288 286 285 281 288 296 294 287 285 285 287 290 293 294 292 294 284 280 274 263 265 259 240 237 224 220 224 228 229
265 275 285 291 293 313 4 321 298 294 291 290 294 297 292 272 274 258 257 267 273 279 286 288 287 294 297 298 297 289 287 288 283 263 267 268 258 255 249 241 210 207 218
257 278 283 290 298 323 329 302 295 285 289 291 291 293 297 311 301 302 287 256 250 243 248 266 279 284 288 293 293 285 282 285 286 286 276 271 264 259 255 242 185 203 216
264 274 287 294 294 310 310 291 295 273 281 285 287 287 291 300 316 318 305 301 294 281 256 248 265 275 282 285 282 279 278 270 266 254 244 265 268 266 262 239 191 207 219
274 278 282 286 290 297 292 286 289 285 285 288 288 290 291 299 330 315 298 298 300 299 274 252 261 267 275 275 272 270 269 269 272 268 243 256 268 270 268 257 214 204 214
274 286 296 294 296 300 296 284 287 286 299 301 299 292 291 297 315 306 297 299 299 305 307 296 266 254 254 253 240 247 265 274 280 279 266 260 271 272 269 260 247 213 217